When you browse on this site, cookies collect data to enhance your experience and personalize the content and advertising you see.
Visit our Privacy Policy to learn more. By continuing to use the site, you agree to this use of cookies and data.
  • în România
  • Lista ţărilor
  • Pe 7 zile
  • Temperatura apei
  • Hartă satelitară
  • Meteo pe hartă
  • Widget-uri
  • user-avatar
    Intrare

    Meteo pe oră la Krukow

    Astăzi, 20 Februarie, Miercuri

    Timp Temperatura Precipitaţii Vânt Presiune Umiditate
    00:00 +3°C° 0 mm 5 m/s 747 mmHg 81%
    01:00 +2°C° 0 mm 5 m/s 747 mmHg 81%
    02:00 +2°C° 0 mm 5 m/s 747 mmHg 82%
    03:00 +2°C° 0 mm 5 m/s 748 mmHg 83%
    04:00 +2°C° 0 mm 5 m/s 748 mmHg 85%
    05:00 +1°C° 0 mm 5 m/s 748 mmHg 85%
    06:00 +1°C° 0 mm 5 m/s 748 mmHg 85%
    07:00 +1°C° 0 mm 5 m/s 748 mmHg 85%
    08:00 +2°C° 0 mm 5 m/s 749 mmHg 80%
    09:00 +3°C° 0 mm 5 m/s 749 mmHg 75%
    10:00 +4°C° 0 mm 6 m/s 749 mmHg 70%
    11:00 +5°C° 0 mm 6 m/s 750 mmHg 67%
    12:00 +7°C° 0 mm 6 m/s 750 mmHg 63%
    13:00 +7°C° 0 mm 6 m/s 750 mmHg 59%
    14:00 +7°C° 0 mm 5 m/s 750 mmHg 61%
    15:00 +7°C° 0 mm 5 m/s 750 mmHg 62%
    16:00 +7°C° 0 mm 5 m/s 750 mmHg 63%
    17:00 +6°C° 0 mm 4 m/s 751 mmHg 68%
    18:00 +5°C° 0 mm 3 m/s 751 mmHg 73%
    19:00 +4°C° 0 mm 3 m/s 751 mmHg 78%
    20:00 +4°C° 0 mm 3 m/s 751 mmHg 78%
    21:00 +4°C° 0 mm 3 m/s 752 mmHg 79%
    22:00 +3°C° 0 mm 3 m/s 752 mmHg 80%
    23:00 +3°C° 0 mm 3 m/s 752 mmHg 80%

    Mâine, 21 Februarie, Joi

    Timp Temperatura Precipitaţii Vânt Presiune Umiditate
    00:00 +3°C° 0 mm 3 m/s 752 mmHg 80%
    01:00 +3°C° 0 mm 3 m/s 752 mmHg 79%
    02:00 +2°C° 0 mm 3 m/s 752 mmHg 79%
    03:00 +2°C° 0 mm 3 m/s 752 mmHg 79%
    04:00 +2°C° 0 mm 3 m/s 752 mmHg 79%
    05:00 +3°C° 0 mm 3 m/s 752 mmHg 78%
    06:00 +3°C° 0 mm 3 m/s 752 mmHg 77%
    07:00 +4°C° 0 mm 3 m/s 752 mmHg 76%
    08:00 +4°C° 0.2 mm 4 m/s 752 mmHg 75%
    09:00 +5°C° 0.2 mm 4 m/s 752 mmHg 75%
    10:00 +5°C° 0.2 mm 4 m/s 752 mmHg 74%
    11:00 +6°C° 0.4 mm 5 m/s 751 mmHg 73%
    12:00 +6°C° 0.4 mm 5 m/s 751 mmHg 71%
    13:00 +7°C° 0.4 mm 6 m/s 751 mmHg 70%
    14:00 +7°C° 0 mm 6 m/s 751 mmHg 69%
    15:00 +7°C° 0 mm 6 m/s 751 mmHg 69%
    16:00 +7°C° 0 mm 6 m/s 750 mmHg 68%
    17:00 +7°C° 0.3 mm 6 m/s 750 mmHg 73%
    18:00 +7°C° 0.3 mm 6 m/s 751 mmHg 78%
    19:00 +7°C° 0.3 mm 6 m/s 751 mmHg 82%
    20:00 +7°C° 0.1 mm 6 m/s 751 mmHg 84%
    21:00 +6°C° 0.1 mm 7 m/s 751 mmHg 85%
    22:00 +6°C° 0.1 mm 7 m/s 751 mmHg 87%
    23:00 +7°C° 0.1 mm 6 m/s 751 mmHg 88%

    Poimâine, 22 Februarie, Vineri

    Timp Temperatura Precipitaţii Vânt Presiune Umiditate
    00:00 +7°C° 0.1 mm 6 m/s 751 mmHg 89%
    01:00 +7°C° 0.1 mm 6 m/s 751 mmHg 89%
    02:00 +7°C° 0.2 mm 6 m/s 751 mmHg 89%
    03:00 +5°C° 0.2 mm 6 m/s 751 mmHg 89%
    04:00 +5°C° 0.2 mm 6 m/s 751 mmHg 88%
    05:00 +5°C° 0.2 mm 6 m/s 752 mmHg 88%
    06:00 +5°C° 0.2 mm 6 m/s 752 mmHg 88%
    07:00 +5°C° 0.2 mm 6 m/s 753 mmHg 88%
    08:00 +3°C° 0.1 mm 6 m/s 754 mmHg 85%
    09:00 +2°C° 0.1 mm 5 m/s 755 mmHg 83%
    10:00 +1°C° 0.1 mm 5 m/s 756 mmHg 81%
    11:00 +1°C° 0 mm 4 m/s 756 mmHg 76%
    12:00 +1°C° 0 mm 4 m/s 757 mmHg 71%
    13:00 +3°C° 0 mm 3 m/s 758 mmHg 65%
    14:00 +1°C° 0 mm 4 m/s 758 mmHg 62%
    15:00 +1°C° 0 mm 4 m/s 759 mmHg 58%
    16:00 +1°C° 0 mm 4 m/s 759 mmHg 54%
    17:00 +1°C° 0 mm 3 m/s 760 mmHg 58%
    18:00 0°C° 0 mm 3 m/s 761 mmHg 62%
    19:00 -1°C° 0 mm 3 m/s 761 mmHg 66%
    20:00 -2°C° 0 mm 2 m/s 762 mmHg 66%
    21:00 -2°C° 0 mm 2 m/s 762 mmHg 66%
    22:00 -3°C° 0 mm 2 m/s 763 mmHg 66%
    23:00 -3°C° 0 mm 2 m/s 763 mmHg 65%

    23 Februarie, Sâmbătă

    Timp Temperatura Precipitaţii Vânt Presiune Umiditate
    00:00 -3°C° 0 mm 2 m/s 764 mmHg 64%
    01:00 -3°C° 0 mm 2 m/s 764 mmHg 62%
    02:00 -3°C° 0 mm 2 m/s 764 mmHg 61%
    03:00 -3°C° 0 mm 2 m/s 764 mmHg 60%
    04:00 -3°C° 0 mm 2 m/s 764 mmHg 58%
    05:00 -2°C° 0 mm 1 m/s 764 mmHg 59%
    06:00 -2°C° 0 mm 1 m/s 764 mmHg 59%
    07:00 -2°C° 0 mm 1 m/s 764 mmHg 59%
    08:00 -3°C° 0 mm 2 m/s 764 mmHg 52%
    09:00 -2°C° 0 mm 2 m/s 764 mmHg 44%
    10:00 -1°C° 0 mm 2 m/s 764 mmHg 37%
    11:00 +1°C° 0 mm 2 m/s 764 mmHg 34%
    12:00 +2°C° 0 mm 3 m/s 764 mmHg 31%
    13:00 +3°C° 0 mm 3 m/s 764 mmHg 27%
    14:00 +4°C° 0 mm 2 m/s 764 mmHg 29%
    15:00 +4°C° 0 mm 2 m/s 763 mmHg 31%
    16:00 +4°C° 0 mm 2 m/s 763 mmHg 33%
    17:00 +2°C° 0 mm 2 m/s 763 mmHg 37%
    18:00 +1°C° 0 mm 2 m/s 763 mmHg 40%
    19:00 -1°C° 0 mm 2 m/s 763 mmHg 44%
    20:00 +1°C° 0 mm 1 m/s 763 mmHg 45%
    21:00 +1°C° 0 mm 1 m/s 763 mmHg 45%
    22:00 +1°C° 0 mm 1 m/s 763 mmHg 46%
    23:00 +1°C° 0 mm 1 m/s 763 mmHg 45%

    24 Februarie, Duminică

    Timp Temperatura Precipitaţii Vânt Presiune Umiditate
    00:00 +1°C° 0 mm 1 m/s 762 mmHg 45%
    01:00 +1°C° 0 mm 1 m/s 762 mmHg 44%
    02:00 +1°C° 0 mm 1 m/s 762 mmHg 44%
    03:00 +1°C° 0 mm 1 m/s 762 mmHg 44%
    04:00 +1°C° 0 mm 1 m/s 761 mmHg 44%
    05:00 +1°C° 0 mm 1 m/s 761 mmHg 44%
    06:00 +1°C° 0 mm 1 m/s 761 mmHg 45%
    07:00 +1°C° 0 mm 1 m/s 761 mmHg 45%
    08:00 +3°C° 0 mm 1 m/s 761 mmHg 42%
    09:00 +5°C° 0 mm 1 m/s 761 mmHg 38%
    10:00 +6°C° 0 mm 1 m/s 761 mmHg 35%
    11:00 +8°C° 0 mm 1 m/s 761 mmHg 35%
    12:00 +8°C° 0 mm 2 m/s 760 mmHg 35%
    13:00 +9°C° 0 mm 2 m/s 760 mmHg 35%
    14:00 +8°C° 0 mm 2 m/s 760 mmHg 40%
    15:00 +8°C° 0 mm 2 m/s 759 mmHg 44%
    16:00 +9°C° 0 mm 1 m/s 759 mmHg 49%
    17:00 +7°C° 0 mm 1 m/s 759 mmHg 52%
    18:00 +6°C° 0 mm 1 m/s 759 mmHg 55%
    19:00 +4°C° 0 mm 1 m/s 759 mmHg 57%
    20:00 +4°C° 0 mm 1 m/s 759 mmHg 58%
    21:00 +4°C° 0 mm 1 m/s 759 mmHg 59%
    22:00 +4°C° 0 mm 1 m/s 759 mmHg 61%
    23:00 +4°C° 0 mm 1 m/s 759 mmHg 61%

    25 Februarie, Luni

    Timp Temperatura Precipitaţii Vânt Presiune Umiditate
    00:00 +5°C° 0 mm 1 m/s 759 mmHg 61%
    01:00 +5°C° 0 mm 1 m/s 759 mmHg 62%
    02:00 +5°C° 0 mm 1 m/s 758 mmHg 63%
    03:00 +5°C° 0 mm 1 m/s 758 mmHg 63%
    04:00 +5°C° 0 mm 1 m/s 758 mmHg 64%
    05:00 +4°C° 0 mm 1 m/s 758 mmHg 66%
    06:00 +3°C° 0 mm 2 m/s 758 mmHg 67%
    07:00 +3°C° 0 mm 2 m/s 758 mmHg 69%
    08:00 +4°C° 0 mm 2 m/s 758 mmHg 65%
    09:00 +4°C° 0 mm 3 m/s 759 mmHg 62%
    10:00 +6°C° 0 mm 4 m/s 759 mmHg 59%
    11:00 +7°C° 0 mm 4 m/s 759 mmHg 57%
    12:00 +8°C° 0 mm 4 m/s 758 mmHg 56%
    13:00 +10°C° 0 mm 4 m/s 758 mmHg 54%
    14:00 +8°C° 0 mm 4 m/s 758 mmHg 57%
    15:00 +8°C° 0 mm 4 m/s 758 mmHg 59%
    16:00 +9°C° 0 mm 3 m/s 758 mmHg 61%
    17:00 +8°C° 0 mm 3 m/s 758 mmHg 68%
    18:00 +7°C° 0 mm 2 m/s 758 mmHg 74%
    19:00 +5°C° 0 mm 2 m/s 759 mmHg 81%
    20:00 +5°C° 0 mm 2 m/s 759 mmHg 83%
    21:00 +5°C° 0 mm 2 m/s 759 mmHg 86%
    22:00 +4°C° 0 mm 2 m/s 759 mmHg 88%
    23:00 +4°C° 0 mm 2 m/s 759 mmHg 88%
    Arată mai mult